This is the latest recevied weather packets stored in our database for station/object YT6PT-8. If no packets are shown the sender has not sent any weather packets the latest 10 day(s).
| Time | Temp. | Humidity | Pressure | Rain* | Wind** | Luminosity | Snow |
|---|---|---|---|---|---|---|---|
| 1787760031 | 21.67° C | 71% | 1009.5 hPa | 0 mm | 2.24 m/s, 0° | - | - |
| 1787759732 | 22.22° C | 70% | 1009.5 hPa | 0 mm | 2.24 m/s, 338° | - | - |
| 1787759438 | 22.22° C | 70% | 1009.5 hPa | 0 mm | 2.24 m/s, 338° | - | - |
| 1787759131 | 22.22° C | 70% | 1009.4 hPa | 0 mm | 2.24 m/s, 338° | - | - |
| 1787758832 | 22.22° C | 70% | 1009.4 hPa | 0 mm | 2.24 m/s, 338° | - | - |
| 1787758532 | 22.78° C | 70% | 1009.4 hPa | 0 mm | 1.79 m/s, 22° | - | - |
| 1787758232 | 22.78° C | 70% | 1009.4 hPa | 0 mm | 1.79 m/s, 22° | - | - |
| 1787757933 | 22.78° C | 69% | 1009.3 hPa | 0 mm | 2.24 m/s, 0° | - | - |
| 1787757649 | 22.78° C | 69% | 1009.3 hPa | 0 mm | 2.24 m/s, 0° | - | - |
| 1787757347 | 22.78° C | 68% | 1009.4 hPa | 0 mm | 1.79 m/s, 338° | - | - |
| 1787757050 | 22.78° C | 68% | 1009.4 hPa | 0 mm | 1.79 m/s, 338° | - | - |
| 1787756751 | 23.33° C | 68% | 1009.4 hPa | 0 mm | 2.24 m/s, 0° | - | - |
| 1787756462 | 23.33° C | 68% | 1009.4 hPa | 0 mm | 2.24 m/s, 0° | - | - |
| 1787756149 | 23.33° C | 69% | 1009.4 hPa | 0 mm | 2.68 m/s, 315° | - | - |
| 1787755851 | 23.33° C | 69% | 1009.4 hPa | 0 mm | 2.68 m/s, 315° | - | - |
| 1787755548 | 23.33° C | 66% | 1009.6 hPa | 0 mm | 2.24 m/s, 0° | - | - |
| 1787755251 | 23.33° C | 66% | 1009.6 hPa | 0 mm | 2.24 m/s, 0° | - | - |
| 1787754950 | 22.78° C | 67% | 1009.6 hPa | 0 mm | 0.45 m/s, 338° | - | - |
| 1787754650 | 22.78° C | 67% | 1009.6 hPa | 0 mm | 0.45 m/s, 338° | - | - |
| 1787754352 | 22.22° C | 68% | 1009.5 hPa | 0 mm | 1.79 m/s, 45° | - | - |
| 1787754050 | 22.22° C | 68% | 1009.5 hPa | 0 mm | 1.79 m/s, 45° | - | - |
| 1787753731 | 22.22° C | 70% | 1009.2 hPa | 0 mm | 1.79 m/s, 0° | - | - |
| 1787753431 | 22.22° C | 70% | 1009.2 hPa | 0 mm | 1.79 m/s, 0° | - | - |
| 1787753132 | 22.22° C | 70% | 1009.2 hPa | 0 mm | 1.34 m/s, 45° | - | - |
| 1787752838 | 22.22° C | 70% | 1009.2 hPa | 0 mm | 1.34 m/s, 45° | - | - |
* Rain latest hour (hover to see other rain measurements)
** Current wind speed in m/s (hover to see current wind gust speed)